Location: Gorzów Wielkopolski
(52.7333°N, 15.2500°E)
Time: 23:40:47
(UTC+01:00)

ISS - Visible Passes

Search period start: 21 January 2018 00:00
Search period end: 31 January 2018 00:00
Orbit: 402 x 407 km, 51.6° (Epoch: 22 January)

Date Brightness Start Highest point End Pass type
(mag) Time Alt. Az. Time Alt. Az. Time Alt. Az.
26 Jan -1.2 18:55:46 10° SSW 18:56:24 13° S 18:56:24 13° S visible
27 Jan -1.6 18:04:33 10° SSE 18:06:03 13° SE 18:06:25 12° SE visible
27 Jan -0.7 19:38:47 10° SW 19:39:05 12° SW 19:39:05 12° SW visible
28 Jan -2.4 18:46:44 10° SW 18:49:02 28° S 18:49:02 28° S visible
29 Jan -2.1 17:54:52 10° SSW 17:57:26 21° SSE 17:58:54 16° ESE visible
29 Jan -1.4 19:30:17 10° WSW 19:31:34 21° WSW 19:31:34 21° WSW visible
30 Jan -3.4 18:38:01 10° SW 18:41:10 46° SSE 18:41:23 46° SSE visible
